User: anonymous   Login
Location: Unspecified
(43.4680°N, 87.1740°E)
Time: 03:37:08
(UTC+00:00)
Language:

Cosmos 1140 Rocket - Orbit

View from above orbital plane
View from above orbital plane
View from above satellite
View from above satellite

Ground track
Ground track

The orbit data is extracted from the following two-line orbital elements,

1 11574U 79089B   21171.37036681  .00000032  00000-0  18188-4 0  9992
2 11574  74.0708  36.0892 0016806 286.6944  73.2367 14.40808931188007
Epoch (UTC): 20 June 2021 08:53:19
Eccentricity: 0.0016806
inclination: 74.0708°
perigee height: 744 km
apogee height: 768 km
right ascension of ascending node: 36.0892°
argument of perigee: 286.6944°
revolutions per day: 14.40808931
mean anomaly at epoch: 73.2367°
orbit number at epoch: 18800

The dashed part of the orbit path shows where the satellite is in the earth's shadow,  

DLR